Content
SEND FEEDBACK

Daily
Averages
Monthly
Summary
United States of America

FAYETTEVILLE, TENNESSEE


Home > North America > United States > Tennessee
Elevation: 700 feet     Latitude: 35 10N     Longitude: 086 33W

WEATHER
 
SELECT A DAY
Number of Records: 306,010;   Date Range: 4/22/02 - 10/28/14
 
SHARE

PRINT THIS DATA

[ ← Previous Day ]
WEATHER ALMANAC - JANUARY 19, 2014
[ Next Day → ]
[ °C ]   °F
Weather ElementAverageHighLow
Temperature38.2 °F46.4 °F (1:15 pm)28.4 °F (10:15 pm)
Dewpoint22.7 °F26.6 °F (8:15 am)15.8 °F (12:35 am)
Humidity56 %86 % (9:55 pm)34 % (12:35 am)
Barometer30.05 in30.15 in (10:15 am)29.90 in (12:35 am)
Wind Speed3.1 mph12.7 mph (3:55 pm)
Weather ElementAverage
Visibility10 mi
Wind DirectionESE (129.1 °)

Weather ElementTotal
Precipitation---
Heating Degree Days27.6 (Base 65)
Averaged from 69 records on January 19, 2014
WEATHER CONDITIONS BREAKOUT
WIND DIRECTION BREAKOUT
WEATHER BY HOUR - JANUARY 19, 2014
[ °C ]   °F
Local TimeTemperatureDewpointHumidityBarometerVisibilityWind DirectionWind SpeedGust SpeedPrecipitationEventsConditions
12:35 AM42.8 °F15.8 °F34 %29.90 in10.0 miSW (220°)9.2 mphScattered Clouds
12:55 AM39.2 °F17.6 °F42 %29.90 in10.0 miSW (220°)5.8 mphClear
1:15 AM37.4 °F19.4 °F48 %29.91 in10.0 miSW (220°)4.6 mphScattered Clouds
1:35 AM41.0 °F19.4 °F42 %29.91 in10.0 miSSW (210°)6.9 mphMostly Cloudy
1:55 AM41.0 °F17.6 °F39 %29.91 in10.0 miSSW (200°)5.8 mphScattered Clouds
2:15 AM39.2 °F19.4 °F45 %29.92 in10.0 miCalmMostly Cloudy
2:35 AM41.0 °F19.4 °F42 %29.93 in10.0 miSW (230°)5.8 mphOvercast
2:55 AM41.0 °F19.4 °F42 %29.94 in10.0 miWSW (240°)9.2 mphOvercast
3:15 AM41.0 °F19.4 °F42 %29.94 in10.0 miWSW (250°)6.9 mphMostly Cloudy
3:35 AM39.2 °F19.4 °F45 %29.94 in10.0 miWSW (250°)5.8 mphMostly Cloudy
3:55 AM37.4 °F19.4 °F48 %29.95 in10.0 miWest (280°)5.8 mphClear
4:15 AM37.4 °F21.2 °F52 %29.96 in10.0 miWest (280°)8.1 mphClear
4:35 AM37.4 °F21.2 °F52 %29.97 in10.0 miNW (310°)6.9 mphClear
4:55 AM35.6 °F21.2 °F56 %29.99 in10.0 miWNW (300°)5.8 mphClear
5:15 AM33.8 °F21.2 °F60 %30.00 in10.0 miWNW (300°)5.8 mphClear
5:35 AM35.6 °F23.0 °F60 %30.00 in10.0 miCalmClear
5:55 AM33.8 °F23.0 °F65 %30.01 in10.0 miCalmClear
6:15 AM33.8 °F23.0 °F65 %30.02 in10.0 miCalmClear
6:35 AM32.0 °F23.0 °F69 %30.03 in10.0 miCalmClear
6:55 AM30.2 °F23.0 °F75 %30.05 in10.0 miWNW (300°)3.5 mphClear
7:15 AM32.0 °F24.8 °F75 %30.06 in10.0 miNW (310°)3.5 mphClear
7:35 AM32.0 °F24.8 °F75 %30.07 in10.0 miWNW (290°)3.5 mphClear
7:55 AM33.8 °F24.8 °F70 %30.09 in10.0 miWNW (290°)3.5 mphScattered Clouds
8:15 AM35.6 °F26.6 °F70 %30.10 in10.0 miWNW (290°)5.8 mphScattered Clouds
8:35 AM35.6 °F26.6 °F70 %30.10 in10.0 miWNW (300°)6.9 mphClear
8:55 AM37.4 °F26.6 °F65 %30.11 in10.0 miNW (310°)8.1 mphClear
9:15 AM37.4 °F26.6 °F65 %30.12 in10.0 miNNW (330°)8.1 mphClear
9:35 AM39.2 °F24.8 °F56 %30.13 in10.0 miNNW (330°)8.1 mphClear
9:55 AM39.2 °F23.0 °F52 %30.14 in10.0 miNNW (330°)6.9 mphClear
10:15 AM41.0 °F23.0 °F49 %30.15 in10.0 miWNW (290°)8.1 mphClear
10:35 AM41.0 °F23.0 °F49 %30.15 in10.0 miNW (320°)5.8 mphClear
10:55 AM41.0 °F23.0 °F49 %30.14 in10.0 miWNW (300°)8.1 mphClear
11:15 AM42.8 °F23.0 °F46 %30.14 in10.0 miNNW (330°)6.9 mphClear
11:35 AM42.8 °F23.0 °F46 %30.13 in10.0 miWNW (300°)10.4 mphClear
11:55 AM44.6 °F23.0 °F43 %30.12 in10.0 miNW (310°)8.1 mphClear
12:15 PM44.6 °F23.0 °F43 %30.12 in10.0 miCalmClear
12:35 PM44.6 °F23.0 °F43 %30.11 in10.0 miCalmClear
12:55 PM44.6 °F23.0 °F43 %30.10 in10.0 miCalmClear
1:15 PM46.4 °F23.0 °F40 %30.10 in10.0 miCalmClear
1:35 PM46.4 °F21.2 °F37 %30.09 in10.0 miCalmClear
1:55 PM46.4 °F21.2 °F37 %30.09 in10.0 miCalmClear
2:15 PM46.4 °F21.2 °F37 %30.08 in10.0 miCalmClear
2:35 PM46.4 °F21.2 °F37 %30.08 in10.0 miCalmClear
2:55 PM46.4 °F21.2 °F37 %30.08 in10.0 miCalmClear
3:15 PM46.4 °F23.0 °F40 %30.08 in10.0 miCalmClear
3:35 PM46.4 °F21.2 °F37 %30.09 in10.0 miCalmClear
3:55 PM46.4 °F21.2 °F37 %30.10 in10.0 miSW (230°)12.7 mphClear
4:15 PM46.4 °F21.2 °F37 %30.10 in10.0 miCalmClear
4:35 PM44.6 °F21.2 °F39 %30.10 in10.0 miWSW (240°)3.5 mphClear
4:55 PM42.8 °F23.0 °F46 %30.09 in10.0 miCalmClear
5:15 PM41.0 °F23.0 °F49 %30.10 in10.0 miCalmClear
5:35 PM41.0 °F23.0 °F49 %30.10 in7.0 miCalmClear
5:55 PM39.2 °F23.0 °F52 %30.09 in10.0 miCalmClear
6:15 PM35.6 °F23.0 °F60 %30.09 in10.0 miCalmClear
7:15 PM32.0 °F26.6 °F80 %30.07 in10.0 miCalmClear
7:35 PM32.0 °F24.8 °F75 %30.07 in10.0 miCalmClear
7:55 PM32.0 °F24.8 °F75 %30.07 in10.0 miCalmClear
8:15 PM32.0 °F23.0 °F69 %30.07 in10.0 miCalmClear
8:35 PM32.0 °F26.6 °F80 %30.07 in10.0 miCalmClear
8:55 PM32.0 °F26.6 °F80 %30.07 in10.0 miCalmClear
9:15 PM30.2 °F24.8 °F80 %30.07 in10.0 miCalmClear
9:35 PM30.2 °F24.8 °F80 %30.07 in10.0 miCalmClear
9:55 PM30.2 °F26.6 °F86 %30.07 in10.0 miCalmClear
10:15 PM28.4 °F24.8 °F86 %30.07 in10.0 miCalmClear
10:35 PM28.4 °F24.8 °F86 %30.07 in10.0 miCalmClear
10:55 PM30.2 °F26.6 °F86 %30.05 in10.0 miCalmClear
11:15 PM33.8 °F23.0 °F65 %30.05 in10.0 miCalmClear
11:35 PM32.0 °F24.8 °F75 %30.04 in10.0 miCalmClear
11:55 PM35.6 °F23.0 °F60 %30.03 in10.0 miCalmClear
Hourly data recorded from KMDQ, located miles away from Fayetteville, Tennessee







STORIES FROM OUR PARTNERS